TimeCDT,TemperatureF,Dew PointF,Humidity,Sea Level PressureIn,VisibilityMPH,Wind Direction,Wind SpeedMPH,Gust SpeedMPH,PrecipitationIn,Events,Conditions,WindDirDegrees,DateUTC
12:07 AM,55.9,55.0,97,30.21,1.2,Calm,Calm,-,N/A,,Clear,0,2013-08-17 05:07:00
12:09 AM,55.9,54.0,93,30.21,0.8,Calm,Calm,-,N/A,,Clear,0,2013-08-17 05:09:00
12:18 AM,55.9,54.0,93,30.21,1.2,Calm,Calm,-,N/A,,Clear,0,2013-08-17 05:18:00
12:22 AM,55.9,54.0,93,30.21,3.0,Calm,Calm,-,N/A,,Clear,0,2013-08-17 05:22:00
12:26 AM,55.9,54.0,93,30.21,1.8,Calm,Calm,-,N/A,,Clear,0,2013-08-17 05:26:00
12:31 AM,55.9,54.0,93,30.21,0.8,Calm,Calm,-,N/A,,Clear,0,2013-08-17 05:31:00
12:38 AM,55.0,54.0,96,30.21,1.2,Calm,Calm,-,N/A,,Clear,0,2013-08-17 05:38:00
12:46 AM,55.0,54.0,96,30.21,0.8,Calm,Calm,-,N/A,,Clear,0,2013-08-17 05:46:00
12:53 AM,55.0,54.0,96,30.21,1.0,Calm,Calm,-,N/A,,Clear,0,2013-08-17 05:53:00
12:56 AM,55.0,54.0,96,30.21,2.0,Calm,Calm,-,N/A,,Clear,0,2013-08-17 05:56:00
1:00 AM,55.0,54.0,96,30.21,1.0,Calm,Calm,-,N/A,,Clear,0,2013-08-17 06:00:00
1:07 AM,55.0,54.0,96,30.21,0.5,Calm,Calm,-,N/A,Fog,Fog,0,2013-08-17 06:07:00
1:19 AM,55.0,54.0,96,30.21,1.2,Calm,Calm,-,N/A,,Clear,0,2013-08-17 06:19:00
1:22 AM,55.0,53.1,93,30.21,4.0,Calm,Calm,-,N/A,,Clear,0,2013-08-17 06:22:00
1:40 AM,54.0,53.1,97,30.21,1.8,Calm,Calm,-,N/A,,Clear,0,2013-08-17 06:40:00
1:50 AM,53.6,53.6,100,30.21,3.0,Calm,Calm,-,N/A,,Clear,0,2013-08-17 06:50:00
1:53 AM,54.0,53.1,97,30.21,4.0,Calm,Calm,-,N/A,,Clear,0,2013-08-17 06:53:00
1:56 AM,54.0,53.1,97,30.21,1.8,Calm,Calm,-,N/A,,Clear,0,2013-08-17 06:56:00
2:03 AM,54.0,53.1,97,30.21,0.8,Calm,Calm,-,N/A,,Clear,0,2013-08-17 07:03:00
2:15 AM,53.1,52.0,96,30.21,1.2,Calm,Calm,-,N/A,,Clear,0,2013-08-17 07:15:00
2:21 AM,54.0,53.1,97,30.21,0.8,Calm,Calm,-,N/A,,Clear,0,2013-08-17 07:21:00
2:29 AM,55.0,53.1,93,30.22,0.5,Calm,Calm,-,N/A,Fog,Fog,0,2013-08-17 07:29:00
2:53 AM,54.0,53.1,97,30.22,0.2,Calm,Calm,-,N/A,Fog,Fog,0,2013-08-17 07:53:00
3:53 AM,55.9,55.0,97,30.22,0.2,Calm,Calm,-,N/A,Fog,Fog,0,2013-08-17 08:53:00
4:53 AM,55.0,54.0,96,30.22,0.2,Calm,Calm,-,N/A,Fog,Fog,0,2013-08-17 09:53:00
5:53 AM,55.0,54.0,96,30.24,0.2,Calm,Calm,-,N/A,Fog,Fog,0,2013-08-17 10:53:00
6:53 AM,55.9,54.0,93,30.25,0.2,Calm,Calm,-,N/A,Fog,Fog,0,2013-08-17 11:53:00
7:53 AM,55.9,55.0,97,29.53,0.2,Calm,Calm,-,N/A,Fog,Fog,0,2013-08-17 12:53:00
8:53 AM,57.9,57.0,97,30.26,0.2,Calm,Calm,-,N/A,Fog,Fog,0,2013-08-17 13:53:00
9:08 AM,59.0,57.0,93,30.25,1.2,Calm,Calm,-,N/A,,Overcast,0,2013-08-17 14:08:00
9:20 AM,60.1,57.9,93,30.25,3.0,Calm,Calm,-,N/A,,Overcast,0,2013-08-17 14:20:00
9:41 AM,63.0,59.0,87,30.25,10.0,Calm,Calm,-,N/A,,Scattered Clouds,0,2013-08-17 14:41:00
9:53 AM,66.9,60.1,79,29.53,10.0,Calm,Calm,-,N/A,,Clear,0,2013-08-17 14:53:00
10:53 AM,75.9,60.1,58,30.24,10.0,NE,3.5,-,N/A,,Clear,40,2013-08-17 15:53:00
11:53 AM,80.1,57.0,45,30.23,10.0,NNE,3.5,-,N/A,,Clear,20,2013-08-17 16:53:00
12:53 PM,82.9,52.0,34,30.21,10.0,Variable,3.5,-,N/A,,Mostly Cloudy,0,2013-08-17 17:53:00
1:53 PM,82.9,53.1,36,30.20,10.0,Variable,3.5,-,N/A,,Partly Cloudy,0,2013-08-17 18:53:00
2:53 PM,84.0,53.1,34,30.18,10.0,East,6.9,-,N/A,,Clear,100,2013-08-17 19:53:00
3:53 PM,82.0,53.1,37,30.17,10.0,Calm,Calm,-,N/A,,Clear,0,2013-08-17 20:53:00
4:53 PM,82.9,52.0,34,30.17,10.0,Variable,3.5,-,N/A,,Clear,0,2013-08-17 21:53:00
5:53 PM,82.0,53.1,37,30.17,10.0,East,4.6,-,N/A,,Clear,90,2013-08-17 22:53:00
6:53 PM,80.1,55.0,42,30.15,10.0,ESE,5.8,-,N/A,,Clear,120,2013-08-17 23:53:00
7:53 PM,71.1,57.9,63,29.53,10.0,Calm,Calm,-,N/A,,Clear,0,2013-08-18 00:53:00
8:53 PM,64.9,60.1,84,30.17,10.0,Calm,Calm,-,N/A,,Clear,0,2013-08-18 01:53:00
9:53 PM,61.0,57.9,90,29.53,10.0,Calm,Calm,-,N/A,,Clear,0,2013-08-18 02:53:00
10:53 PM,59.0,57.0,93,30.18,7.0,Calm,Calm,-,N/A,,Clear,0,2013-08-18 03:53:00
11:53 PM,57.0,55.9,96,30.18,4.0,Calm,Calm,-,N/A,,Clear,0,2013-08-18 04:53:00